Theta_e
302 295 293 293 296 297 296 294 290 290 290 289 286 286 285 286 286 287 287 289 289 289 288 288 290 289 290 290 290 290 288 289 290 291 291 290 291 294 295 296 298 301 306 309 310 312 316 318 320 321 321 320 319 321 321 322 322 323 324 323 324 325 326 326 326 325 326 325 324 326 327 327 326 326 327 327 328 328 328 326 326 327 327 326 324 323
302 295 294 297 298 298 296 291 289 290 290 288 287 285 285 286 287 289 290 290 288 289 289 287 286 288 289 290 289 289 289 291 291 291 291 291 290 292 294 295 296 299 301 303 304 307 309 315 315 317 318 316 317 318 320 321 322 323 323 324 325 324 325 326 327 326 326 326 327 325 326 326 326 326 326 327 327 329 328 327 326 324 325 325 325 323
294 293 297 299 297 295 294 292 290 290 289 287 287 287 285 285 286 288 288 289 288 289 287 284 287 289 290 290 289 288 291 292 293 292 294 293 292 291 291 294 295 295 299 301 304 304 308 311 313 315 317 318 320 320 320 321 321 321 322 323 324 324 325 326 326 326 326 325 322 324 318 326 319 323 326 328 327 328 329 328 327 324 325 326 325 325
289 293 298 297 295 292 291 289 289 288 288 287 285 285 285 286 286 284 287 288 287 286 286 285 285 288 288 286 287 290 291 291 291 292 292 292 293 292 292 293 295 295 298 300 302 303 305 308 311 313 315 317 318 318 318 319 320 321 321 323 323 324 324 325 325 324 325 324 320 319 319 321 323 321 316 323 322 325 326 326 325 323 323 323 325 325
292 295 297 296 294 293 291 290 288 287 286 287 288 285 285 286 286 285 287 286 287 286 284 283 284 285 285 288 289 291 290 290 291 290 290 291 291 292 291 291 292 295 297 299 300 299 300 304 308 312 315 316 317 318 319 319 321 322 321 322 323 324 324 325 321 322 321 320 316 315 314 314 316 316 316 320 321 322 323 322 322 325 324 324 325 326
293 295 297 295 294 291 291 289 289 288 285 285 287 288 288 286 288 285 287 288 285 286 287 288 282 280 280 284 288 292 288 289 289 291 292 293 292 290 291 292 292 293 294 298 300 300 300 303 307 308 310 313 315 317 319 320 321 321 321 320 321 322 322 324 322 322 322 322 322 319 321 320 316 319 314 318 319 317 319 323 323 324 324 325 324 325
295 295 295 294 293 292 290 289 290 289 287 284 285 288 289 289 289 286 286 287 281 281 285 284 283 275 279 284 287 286 285 289 288 288 292 292 292 291 292 293 293 293 293 293 294 294 296 299 303 307 309 311 313 316 317 316 318 319 320 319 320 321 321 322 321 321 320 321 321 322 322 322 321 322 317 313 313 318 314 314 318 319 321 322 323 319
294 294 293 293 293 292 290 287 290 290 287 284 287 287 290 288 287 286 288 287 279 282 286 283 281 279 280 285 282 280 283 286 287 289 289 291 291 292 292 292 292 293 293 294 295 296 297 300 305 308 310 310 313 313 309 313 313 316 318 318 319 320 319 320 320 320 322 322 320 319 318 317 318 319 319 314 313 309 311 316 317 319 319 320 320 320
294 292 292 290 290 290 288 291 292 290 288 285 288 289 289 290 289 288 288 284 282 284 282 282 283 282 277 281 282 282 284 284 286 288 290 291 292 292 292 292 292 293 294 294 295 296 296 298 302 306 307 307 304 301 306 309 311 313 314 315 316 318 318 319 319 320 320 321 321 321 319 316 315 315 313 310 311 313 314 315 314 317 317 316 315 315
293 294 294 294 291 287 291 292 290 290 288 289 290 291 289 288 287 287 285 285 284 282 282 281 282 280 278 279 281 281 283 283 285 288 290 291 293 292 291 291 292 292 293 294 295 295 295 295 296 297 298 297 297 296 297 299 301 306 310 312 314 316 317 318 318 319 319 320 318 319 317 317 312 311 311 314 314 314 315 314 313 313 314 312 311 310
291 295 298 294 291 294 294 292 290 290 290 293 291 290 287 285 284 281 282 280 282 276 283 281 281 282 279 282 286 285 286 288 289 288 287 287 288 289 291 292 292 293 295 295 295 294 293 293 293 293 298 297 296 296 296 297 300 302 308 311 313 314 315 315 317 317 318 318 318 319 318 317 313 311 313 313 312 312 312 313 311 310 308 308 308 307
291 292 292 294 295 292 294 291 291 291 293 293 288 285 287 285 282 283 280 281 278 278 277 278 279 279 279 278 282 285 283 283 288 289 290 287 287 289 289 289 291 293 294 294 294 294 294 295 295 294 296 297 297 298 297 296 300 301 304 309 312 309 311 312 315 316 316 317 318 319 319 318 316 314 315 315 313 313 313 311 309 307 307 305 305 305
288 289 292 294 295 294 291 291 290 292 291 290 288 288 284 278 279 276 278 276 278 277 278 277 278 279 281 282 282 281 284 287 285 287 289 287 287 287 288 290 292 293 293 295 295 294 294 297 297 296 295 296 296 299 297 298 299 299 301 305 310 310 307 311 313 316 315 317 318 319 318 318 317 317 317 316 315 313 312 309 307 307 305 304 304 302
286 290 290 292 292 293 293 288 286 286 288 287 288 285 283 275 273 274 271 268 269 274 277 280 281 278 279 282 289 289 291 288 286 286 286 286 287 288 289 290 293 293 294 295 295 294 295 295 296 295 296 296 295 297 297 296 298 298 300 302 309 310 306 307 312 314 315 317 317 318 318 317 316 316 315 314 313 311 310 309 307 306 304 303 301 299
280 282 288 290 288 293 292 293 292 289 288 288 286 289 282 277 271 271 267 274 274 275 275 277 277 273 279 284 284 289 288 283 284 286 287 288 289 289 288 291 291 292 291 291 293 295 295 295 294 296 296 296 296 299 300 299 301 302 303 306 308 307 305 307 311 312 313 314 314 315 315 315 315 314 312 310 310 308 306 305 304 302 301 301 297 296
284 284 288 292 291 291 291 292 291 290 288 287 286 287 284 284 280 277 273 272 269 273 272 274 276 278 282 283 285 285 285 286 286 288 289 291 291 290 291 292 294 294 294 293 293 293 293 292 292 293 294 295 296 301 302 301 303 305 307 308 309 309 307 307 308 310 312 311 312 311 312 312 311 309 308 305 305 305 305 304 303 300 298 296 294 292
284 283 288 290 290 289 291 290 290 292 284 287 285 285 285 285 283 277 276 276 275 273 273 272 277 279 280 285 283 283 286 288 286 288 290 291 290 290 291 292 293 294 294 293 294 293 292 291 291 292 292 292 295 302 303 303 305 307 308 309 308 307 307 307 307 308 309 310 309 309 309 307 307 307 307 305 302 301 301 301 299 297 294 293 293 292
284 284 287 288 287 291 290 290 292 288 291 285 282 285 287 286 285 282 277 269 268 272 274 273 277 278 278 280 282 283 286 288 285 286 286 288 288 290 292 292 293 294 293 292 292 291 292 292 292 291 291 294 299 302 303 303 304 307 309 309 308 307 307 306 306 306 308 308 307 306 307 306 306 305 303 302 299 298 297 295 294 293 293 292 291 292
289 281 285 287 289 291 291 291 291 291 291 289 287 289 287 281 281 280 277 270 269 269 266 271 275 275 277 282 279 285 285 288 289 286 286 289 290 291 292 292 290 290 290 291 292 292 291 291 292 290 292 293 297 301 303 303 304 305 307 308 308 308 307 306 306 305 305 307 306 305 304 303 301 301 299 298 297 296 295 293 292 292 291 290 289 289
289 281 282 288 288 290 289 290 285 286 291 289 289 287 287 286 283 279 278 275 276 270 269 271 275 277 279 279 279 286 287 289 287 285 288 291 291 292 292 293 293 292 292 292 292 292 291 291 290 290 291 292 295 298 300 302 304 304 304 305 305 303 303 303 304 304 303 302 302 300 300 300 299 298 297 296 295 294 292 292 291 290 289 289 288 287
286 286 279 285 288 288 285 287 287 288 285 286 286 283 285 283 285 282 279 275 276 269 267 266 269 274 279 282 284 289 289 289 288 289 290 291 292 291 291 292 293 293 293 292 292 291 290 290 289 289 289 289 289 293 298 301 303 303 302 303 303 303 302 302 302 302 300 300 299 299 298 297 296 295 295 293 292 292 291 290 290 289 287 285 285 285
286 285 282 283 283 285 286 288 287 288 289 287 286 283 284 282 280 279 280 278 270 273 269 266 273 274 281 283 289 290 291 288 287 288 289 289 290 291 291 291 291 292 292 291 291 290 290 288 288 288 287 287 288 292 296 298 300 300 301 301 301 301 301 300 299 299 298 298 298 298 296 295 294 293 292 291 290 289 288 287 287 285 285 286 283 284
287 285 284 280 283 286 287 289 288 288 287 287 287 286 287 285 283 278 278 278 274 274 275 269 271 276 284 281 285 287 284 284 284 286 288 289 289 291 292 291 290 291 292 291 291 290 289 289 288 288 289 289 290 291 292 294 298 299 299 298 298 300 298 299 298 297 297 296 295 294 293 291 289 288 288 288 287 287 286 286 285 285 286 285 284 282
292 285 283 281 285 286 288 289 287 287 288 288 287 285 285 285 284 284 281 279 279 276 275 274 272 276 281 280 281 281 281 282 284 284 286 287 287 289 291 291 290 290 289 289 287 288 288 288 286 288 288 289 289 289 291 294 295 296 296 297 296 296 294 294 294 294 294 293 291 290 289 288 287 287 287 287 287 286 285 285 285 284 285 284 284 284
285 283 286 278 279 281 284 287 288 287 287 285 284 284 284 283 280 280 277 276 278 277 281 276 276 272 282 280 280 280 282 283 284 284 285 287 287 288 290 291 291 290 289 289 289 289 287 287 287 290 290 290 289 288 289 290 292 292 293 292 293 292 291 291 291 292 291 290 288 287 287 286 287 287 287 286 286 285 285 284 284 284 284 284 284 283
289 284 285 279 277 276 276 277 280 284 284 284 283 283 283 286 282 282 279 277 276 275 278 273 270 277 281 280 281 282 282 284 284 284 283 285 287 289 289 291 291 291 291 290 289 288 289 290 289 289 289 290 289 290 289 289 289 288 288 289 289 289 288 288 288 289 288 288 287 287 286 286 286 287 286 286 285 285 284 284 284 283 282 283 283 282
284 285 287 286 284 282 283 283 285 287 283 284 284 283 284 285 285 285 282 277 278 274 276 277 279 281 282 284 283 283 283 285 286 285 287 287 286 288 289 291 291 291 291 291 291 291 289 289 290 291 290 290 288 288 288 288 288 287 287 287 287 288 288 287 287 287 288 287 287 287 286 286 286 286 286 285 285 284 284 283 283 283 283 282 283 283
284 284 286 287 287 287 285 285 287 290 286 287 286 285 285 285 285 285 283 282 282 278 275 277 279 280 283 283 282 283 283 284 285 285 286 285 287 288 289 289 291 290 290 290 290 290 291 291 291 290 290 289 289 288 287 287 288 289 288 288 287 287 287 287 287 287 287 287 287 287 286 286 285 285 285 284 284 283 283 283 282 282 281 282 282 282
286 285 286 286 286 286 286 287 289 289 289 288 288 288 286 286 285 284 285 288 284 282 282 285 281 281 284 285 285 286 286 287 287 287 287 287 287 287 287 288 290 291 291 291 291 291 291 292 291 291 291 290 288 288 288 288 287 287 288 288 287 287 287 286 287 287 287 287 287 286 286 285 285 284 284 283 283 283 283 282 282 281 282 281 281 281
288 284 285 286 284 284 284 285 287 288 287 287 288 288 289 287 286 287 288 289 287 285 287 286 283 283 285 283 285 288 287 286 285 285 288 288 288 289 289 290 290 291 291 291 292 292 292 292 292 291 291 289 289 289 288 288 288 288 288 287 287 287 286 287 287 287 287 287 286 286 285 285 284 283 283 283 283 283 282 282 281 282 281 281 280 280
288 282 288 285 282 282 283 283 285 286 286 285 287 288 289 289 288 288 288 288 287 286 286 284 282 283 285 287 288 287 285 284 285 286 288 289 289 290 290 291 291 292 292 292 292 292 292 292 292 291 291 290 289 289 289 289 288 288 287 287 287 287 286 287 287 287 287 286 286 285 284 284 283 283 283 282 282 282 281 281 281 281 281 280 280 280
285 280 284 284 281 278 281 283 284 285 285 284 284 285 286 287 285 287 286 287 285 284 285 283 283 284 287 284 286 286 287 287 287 288 288 289 290 290 291 292 292 292 293 293 293 292 291 291 291 291 291 291 290 290 289 289 289 288 288 288 288 287 286 287 287 287 286 286 285 284 283 283 283 282 282 282 282 281 280 280 280 280 280 280 279 279
283 282 281 280 281 275 281 281 283 284 283 282 283 286 287 286 288 288 288 288 289 289 285 283 284 290 288 288 290 288 287 288 288 290 289 288 289 291 292 292 293 294 294 294 293 292 292 292 292 293 292 291 291 290 290 290 289 289 289 288 288 287 286 286 286 285 285 284 284 283 283 283 283 282 282 281 281 280 280 280 280 279 279 279 278 278
285 285 282 285 281 278 279 280 283 282 276 279 288 291 288 287 286 285 286 287 288 288 288 290 289 286 287 288 289 288 287 289 291 292 291 290 289 290 291 292 293 294 293 293 294 294 294 294 294 293 293 293 292 291 290 289 290 289 288 287 286 286 286 285 285 285 284 284 284 283 283 283 282 282 281 280 280 280 280 280 279 278 277 277 276 277
287 287 285 284 282 278 278 281 280 276 279 287 284 287 291 291 289 288 290 290 290 290 289 288 287 284 289 290 291 291 291 291 290 289 288 286 291 292 293 293 293 294 294 294 294 294 294 294 293 292 290 291 291 289 288 288 288 287 287 286 286 285 285 285 284 284 284 284 283 283 282 282 282 281 281 280 280 280 279 279 277 277 276 276 276 276
287 287 282 280 281 280 278 280 275 278 284 285 285 285 286 288 287 288 286 288 288 288 289 288 290 290 288 288 287 287 287 286 285 285 287 287 290 293 292 293 294 293 293 294 294 295 294 294 293 293 293 291 289 289 289 289 287 287 286 286 286 285 285 285 284 284 284 284 283 282 282 282 281 281 280 280 279 279 278 278 277 277 275 274 275 274
290 287 286 280 281 279 277 280 281 283 283 285 286 286 286 285 284 286 283 287 291 291 290 290 290 291 290 289 288 285 284 287 288 290 288 287 288 289 292 293 294 294 294 294 294 295 294 294 294 292 289 289 290 289 289 288 287 287 286 285 286 285 285 284 284 284 284 284 283 282 282 282 281 280 280 279 278 278 277 276 275 275 274 275 275 275
290 288 283 285 278 279 278 274 275 278 277 283 286 285 289 288 290 291 287 286 289 291 292 291 290 291 290 289 288 286 287 288 287 290 292 291 290 290 290 291 291 289 289 289 288 289 290 290 289 288 291 289 289 289 289 288 288 287 286 286 285 285 284 284 284 284 284 284 283 282 282 281 281 280 278 278 278 277 276 275 274 274 274 275 275 274
284 286 287 287 282 279 277 277 278 276 280 284 287 287 290 290 291 289 285 284 288 289 290 291 291 291 290 290 288 286 287 284 287 290 292 289 292 290 289 289 289 288 287 287 290 290 289 291 291 290 289 289 289 288 289 288 288 287 287 286 285 285 284 284 284 284 284 284 283 282 281 280 280 279 278 277 277 276 275 275 274 273 272 273 273 272
285 280 284 281 279 280 280 278 279 279 280 285 287 287 289 291 293 289 279 282 286 289 290 290 291 291 291 290 288 288 288 286 287 290 289 289 288 286 288 289 287 286 287 285 286 288 289 288 288 288 289 289 290 289 288 288 288 287 287 286 285 285 284 284 285 284 284 282 281 280 279 279 278 277 277 276 275 275 275 274 273 272 272 272 272 272
278 278 280 283 283 280 283 275 275 280 282 282 284 285 287 293 292 283 280 286 288 289 288 291 291 292 290 288 288 288 289 292 290 288 284 282 286 287 285 282 283 284 285 285 286 287 286 288 290 290 290 290 289 288 288 288 288 287 287 286 285 285 285 285 284 283 282 281 279 278 277 276 276 276 275 275 275 274 273 273 273 272 272 272 273 273
276 277 273 275 279 280 280 280 280 280 284 286 283 287 291 290 280 282 290 285 285 286 284 287 288 287 288 288 288 290 292 288 283 282 284 286 285 284 282 282 283 283 282 283 284 285 286 286 286 286 286 285 287 287 287 287 287 287 286 286 285 286 285 283 282 281 280 278 277 276 275 275 274 274 274 273 273 273 272 271 272 273 273 273 274 273
283 282 278 280 277 273 272 276 273 277 283 288 288 286 288 287 286 287 284 284 283 284 285 285 287 286 288 288 289 290 288 285 286 286 285 283 284 285 284 283 283 283 284 284 285 284 285 286 285 285 285 284 286 286 287 287 287 286 286 285 286 283 282 281 280 279 278 276 275 274 274 273 273 273 273 272 273 273 272 272 272 273 273 273 273 273
285 282 276 279 283 281 279 278 280 285 285 289 292 289 288 289 287 285 287 289 285 282 284 285 284 285 286 288 287 287 285 285 285 284 284 283 283 283 283 282 282 282 282 282 283 283 283 285 283 283 281 283 285 286 286 287 287 286 285 285 281 280 279 279 278 277 276 275 274 273 273 272 272 272 272 272 272 272 272 272 272 273 273 273 272 272
286 287 285 284 280 282 282 285 282 284 287 286 284 286 290 287 281 283 285 285 287 285 282 285 286 283 284 285 285 285 284 284 285 285 285 284 283 282 282 282 281 281 281 281 282 282 283 284 284 282 281 282 284 285 286 287 287 285 285 282 279 279 278 278 277 276 275 274 273 272 272 271 271 271 270 271 272 272 272 272 272 271 271 272 272 271
283 284 282 287 284 284 284 284 283 282 284 285 282 283 282 285 281 281 283 286 286 284 283 285 285 283 281 283 286 283 285 283 284 283 283 282 282 281 280 280 279 278 278 278 279 279 279 280 280 281 281 280 281 283 283 285 286 285 284 278 279 278 278 277 276 275 274 273 272 271 271 271 270 270 271 272 273 273 273 272 272 272 271 271 271 271
282 281 285 283 284 286 283 283 284 285 284 284 283 283 281 281 282 282 284 284 284 282 282 283 282 281 282 282 284 284 284 283 283 283 282 281 281 280 280 280 279 278 278 278 278 277 279 278 280 279 279 280 278 278 279 279 280 280 277 277 278 278 277 276 276 275 273 272 271 271 271 271 271 271 271 272 272 272 272 272 272 272 271 270 270 270
283 283 286 280 283 286 283 281 280 278 278 281 280 284 286 283 281 280 281 281 281 281 281 282 281 282 280 282 282 282 282 281 283 283 282 281 281 280 280 278 278 278 276 276 276 276 276 277 278 278 277 278 276 276 276 276 276 276 277 277 277 276 276 276 275 274 272 271 271 271 271 271 271 271 271 270 270 270 270 270 271 271 271 270 270 270
282 287 283 283 283 280 281 281 279 282 284 284 281 280 280 281 281 281 281 281 281 283 282 282 281 282 282 283 280 281 282 281 280 281 281 281 280 279 279 279 278 277 275 276 275 275 277 276 275 275 276 275 274 273 274 273 274 275 276 276 276 276 276 275 273 273 271 271 271 271 271 271 271 271 270 270 270 270 270 270 269 270 270 269 268 269
284 284 281 282 278 279 284 282 281 284 280 286 285 283 282 281 281 282 281 281 281 282 281 283 281 280 279 280 281 282 282 281 280 280 280 281 280 279 278 277 276 275 274 274 274 274 274 274 274 274 274 272 271 271 272 271 272 273 274 274 275 275 275 274 272 271 271 271 271 271 271 270 270 270 269 268 268 268 268 270 272 270 269 269 271 274
286 284 283 282 283 284 286 285 288 284 283 283 287 282 281 280 282 283 283 282 281 281 281 283 283 282 282 281 279 280 281 281 281 280 280 279 280 278 278 277 277 275 274 273 274 273 273 273 272 273 272 271 270 270 271 271 271 272 272 273 274 275 275 273 273 272 271 271 271 271 270 270 269 268 268 268 268 269 269 270 272 275 275 274 274 276
Wind_Speed
3 9 11 16 19 15 11 10 5 7 8 9 3 3 7 6 4 3 3 2 1 3 8 7 8 8 8 7 5 3 2 4 6 7 7 6 7 8 8 9 10 10 14 9 7 7 9 10 10 8 7 7 6 7 8 9 9 10 11 9 10 8 7 8 8 7 7 7 5 5 7 7 5 5 4 4 4 4 4 3 3 3 5 6 6 6
5 11 16 18 9 13 12 4 5 9 8 9 7 5 8 6 8 4 3 1 2 4 5 4 4 8 11 8 4 0 4 10 11 10 9 9 8 8 10 11 11 13 5 2 5 7 6 8 8 7 7 6 8 8 8 11 12 11 10 11 11 8 9 9 10 9 8 7 7 6 6 4 4 4 4 4 3 5 4 3 3 3 2 2 3 4
8 17 19 9 7 5 7 7 8 9 9 6 7 5 4 8 2 2 1 1 2 2 8 0 5 10 12 9 1 4 8 7 7 10 13 13 11 10 9 10 11 6 9 6 8 6 7 9 9 8 8 8 11 10 11 10 9 10 11 10 9 9 10 9 9 8 9 5 4 5 4 6 2 1 3 4 4 5 5 4 4 3 3 4 4 3
9 14 2 10 7 7 5 4 8 7 7 8 5 3 8 2 6 6 1 0 2 2 2 1 4 9 7 4 6 8 8 6 6 7 10 6 10 12 13 13 12 12 10 10 11 11 9 8 9 8 9 10 9 8 8 9 11 10 10 9 9 10 9 9 9 9 6 6 5 4 4 5 5 4 2 1 0 1 1 3 3 2 3 3 4 3
10 5 10 7 7 8 9 5 6 7 9 5 6 4 3 3 5 4 5 2 0 1 3 3 2 7 5 6 5 7 6 5 5 5 6 8 8 7 4 4 6 11 11 12 10 7 7 8 10 11 11 9 10 10 11 10 11 9 12 11 11 10 10 8 8 8 6 5 4 4 4 4 4 3 2 1 2 1 1 1 1 4 3 4 4 4
3 2 8 11 8 5 6 9 10 7 8 6 6 9 7 3 6 1 2 6 1 3 3 1 1 6 5 6 10 9 1 4 5 6 10 11 8 7 9 11 7 8 6 10 12 11 10 10 8 7 7 9 10 11 11 10 11 10 9 8 8 7 7 9 8 8 7 8 8 6 6 5 3 4 3 4 4 3 2 3 1 1 2 3 3 2
2 2 12 14 11 8 7 9 9 6 9 6 7 9 8 6 3 4 6 5 4 6 3 1 8 6 4 5 7 5 2 9 3 4 11 9 8 7 12 10 9 10 9 7 7 5 5 7 6 8 9 10 10 11 9 8 8 9 8 8 9 8 7 7 7 8 8 7 7 9 9 8 8 7 3 2 2 4 3 1 2 1 0 2 2 2
8 9 4 6 10 11 10 11 12 11 9 9 2 4 9 6 5 6 7 8 3 1 1 1 3 5 6 8 3 2 2 7 7 10 11 10 10 11 11 10 9 10 8 9 11 10 8 8 11 13 13 11 12 9 6 7 6 8 9 8 9 8 8 7 7 8 9 9 7 7 6 6 6 7 7 6 4 2 3 4 4 3 3 4 3 5
14 9 9 9 9 10 15 15 5 8 8 4 1 6 6 9 9 8 6 5 1 2 7 2 1 1 6 7 3 0 3 6 8 12 13 13 12 13 10 10 11 10 8 8 9 10 10 11 10 9 9 7 5 4 7 7 7 6 5 6 6 7 7 7 9 10 9 8 9 8 7 6 5 5 4 3 3 5 4 6 3 5 5 5 5 5
3 12 10 9 9 14 10 5 6 9 8 4 3 4 4 5 4 3 5 5 1 1 10 7 5 5 7 5 4 1 1 6 8 10 12 14 15 11 10 10 9 6 6 6 8 7 7 6 5 4 1 2 5 4 3 3 4 5 5 6 7 7 7 7 8 9 9 8 8 8 7 8 6 4 4 4 6 5 5 6 5 5 5 4 5 5
2 4 6 7 11 6 3 7 6 9 6 4 4 5 4 5 3 3 4 3 3 6 13 6 8 6 7 6 9 7 8 9 10 8 6 6 7 9 11 11 9 8 7 7 7 5 5 2 4 3 6 5 2 2 2 4 4 5 6 6 7 8 6 6 8 9 9 8 8 8 8 9 8 6 7 6 5 4 4 6 4 5 4 4 5 4
3 2 3 3 4 3 1 4 1 2 0 9 2 4 4 2 3 2 1 1 5 11 2 1 5 3 11 4 5 7 3 4 7 9 10 6 6 8 7 7 7 6 6 5 5 5 3 3 2 2 5 5 4 2 3 3 2 4 5 6 7 5 7 6 7 8 9 9 9 8 9 10 9 10 8 9 9 8 7 6 6 4 5 5 4 3
1 5 2 2 3 8 4 2 1 1 1 4 3 6 9 3 2 3 1 5 11 9 0 1 2 1 13 6 6 5 7 7 7 7 7 6 7 6 7 8 6 5 4 6 5 4 4 5 6 5 5 3 3 5 3 3 2 3 4 5 7 7 5 7 7 8 8 8 9 8 9 8 9 10 10 9 9 8 8 7 7 6 6 5 4 3
4 2 2 4 2 5 7 11 6 4 6 7 10 8 10 5 4 7 4 2 4 5 3 0 0 5 2 7 13 13 14 8 6 8 6 6 8 7 6 5 5 5 5 5 5 5 5 5 5 5 5 4 3 2 3 2 1 2 4 4 6 6 5 5 7 8 8 9 9 8 9 8 8 8 8 8 9 7 6 6 7 6 6 5 5 4
7 5 11 11 10 7 10 10 8 2 8 10 1 8 7 5 5 6 4 9 8 6 1 3 3 7 6 8 2 10 7 4 5 5 5 7 8 8 5 4 4 4 5 4 5 6 6 5 4 5 5 4 3 3 2 2 2 2 3 5 6 6 4 6 7 7 8 7 7 6 7 8 8 8 7 5 7 8 8 6 7 6 5 6 5 5
14 4 1 7 1 8 8 3 3 4 4 7 3 3 5 10 6 3 5 4 2 2 1 1 6 3 5 2 6 4 6 6 3 4 2 5 3 2 3 5 7 6 5 5 5 5 4 4 3 2 3 3 3 3 3 3 3 3 4 4 6 8 7 6 7 6 8 7 7 7 8 8 8 8 7 6 5 5 6 7 8 6 5 5 5 4
4 7 0 3 2 4 7 5 3 5 8 4 4 11 6 2 8 6 3 0 2 3 6 3 5 5 8 8 3 4 3 7 4 4 2 5 3 1 5 5 5 6 5 5 6 5 4 2 2 3 3 3 3 3 4 4 4 4 5 5 6 5 5 6 6 7 7 8 8 7 8 9 9 9 10 9 8 7 6 7 7 7 5 5 5 5
11 3 1 6 6 1 1 3 2 1 1 5 7 7 1 2 4 4 5 2 1 5 6 3 7 2 2 7 3 3 2 9 6 6 5 3 3 5 7 5 6 7 6 4 4 3 4 4 4 3 2 3 4 5 4 5 4 4 5 6 8 7 8 5 6 7 8 9 8 8 8 7 8 9 8 8 9 7 8 6 7 6 6 5 5 5
6 2 1 1 4 3 2 2 1 1 2 4 5 2 8 4 6 1 4 2 2 3 4 1 2 4 5 7 3 3 5 9 12 6 3 6 6 9 6 5 5 3 3 4 5 4 4 4 4 4 4 3 3 4 5 5 5 3 4 5 6 8 7 8 6 6 5 7 7 7 8 9 8 7 7 6 8 7 8 8 7 6 6 6 5 6
3 4 1 1 2 2 1 4 10 5 1 2 0 2 1 2 3 4 6 3 4 4 0 6 1 5 6 6 6 6 9 12 5 1 9 10 9 7 7 7 8 7 6 5 5 4 4 4 4 4 5 5 5 5 4 5 5 4 4 5 6 6 6 6 7 7 8 6 7 8 7 6 7 7 8 8 9 8 7 7 7 7 6 6 5 5
5 2 3 1 1 1 6 3 9 8 6 1 2 4 2 0 2 3 2 4 4 5 5 2 2 5 7 8 8 11 11 11 9 10 9 10 9 8 6 7 7 7 6 6 5 5 4 4 3 2 1 1 2 2 4 5 6 6 4 5 7 9 7 7 7 7 7 7 7 9 9 8 8 8 8 8 7 8 7 6 7 6 6 5 5 5
4 5 7 2 2 7 2 1 2 3 4 4 6 6 6 4 3 6 10 3 2 2 4 4 8 5 9 4 12 15 13 1 4 6 7 6 6 7 7 7 7 7 6 5 5 5 5 4 3 2 2 2 3 4 5 4 5 6 6 6 6 7 7 7 6 7 7 6 7 8 8 8 7 8 7 8 7 8 7 6 6 6 6 6 4 4
5 3 7 4 5 6 1 0 2 2 1 2 2 5 5 3 5 4 9 6 2 1 5 3 0 7 6 3 7 7 3 2 2 2 7 6 7 7 8 6 5 5 6 6 6 5 5 4 5 5 5 5 6 5 5 5 6 6 6 6 5 7 6 6 7 6 7 7 7 8 8 8 7 7 8 9 7 8 8 7 6 5 7 7 5 4
7 4 6 3 1 2 2 1 2 1 1 2 3 2 2 6 4 5 4 5 7 1 1 1 4 7 5 1 4 5 5 5 5 4 8 6 4 5 5 6 6 5 5 4 4 4 4 4 4 4 4 5 5 5 6 5 5 5 6 6 5 7 6 5 6 6 7 7 7 7 8 8 7 8 8 9 8 9 7 7 6 5 6 6 6 7
5 2 8 3 3 3 5 4 5 1 2 4 2 1 1 2 4 2 4 1 2 6 8 6 12 2 4 3 3 2 5 5 6 6 6 9 5 4 5 4 4 5 4 5 6 5 4 4 6 7 6 6 6 5 5 5 5 6 5 5 6 5 5 6 5 7 7 8 9 7 8 8 8 9 8 9 8 8 7 7 7 5 6 7 6 5
6 5 10 9 11 12 13 17 20 19 12 1 1 0 2 5 5 3 4 1 5 2 4 3 5 8 9 5 3 3 4 6 6 5 4 6 5 4 4 5 6 6 7 6 5 5 8 7 5 5 5 6 6 7 6 5 5 5 5 5 4 7 5 5 5 7 8 8 9 8 8 8 7 8 9 9 8 8 7 7 6 6 4 5 7 5
3 3 8 11 14 17 11 4 4 10 4 8 3 2 3 2 1 1 3 3 8 3 6 7 6 4 5 5 5 5 3 6 6 4 3 4 4 3 3 4 5 6 6 8 8 7 4 4 8 8 7 6 5 5 6 6 5 5 5 5 4 5 6 6 7 7 8 7 8 8 8 8 8 8 8 8 8 7 6 6 6 6 6 4 6 6
4 5 11 14 13 6 3 3 4 10 5 7 6 5 5 5 6 6 8 8 5 4 9 5 4 5 10 7 8 8 6 6 7 7 6 3 3 4 3 3 3 4 3 4 5 8 11 10 8 8 8 7 7 6 5 5 6 7 7 7 5 5 6 6 7 7 7 8 8 8 8 7 7 8 7 7 6 6 6 6 5 5 5 5 6 6
8 12 8 8 8 6 7 8 12 11 12 11 13 11 9 8 7 10 9 13 6 8 14 9 8 8 9 10 9 9 7 4 1 3 5 5 2 3 4 4 6 7 7 8 10 9 9 11 10 10 9 9 7 8 8 7 6 5 5 5 6 6 7 7 7 7 8 7 8 8 7 7 6 6 7 7 7 7 6 6 6 5 5 5 6 5
8 8 6 10 5 5 5 7 9 14 9 10 14 16 15 12 12 14 16 15 14 13 13 9 7 15 8 5 8 8 2 2 3 2 1 3 4 5 5 6 8 9 10 12 11 11 10 10 9 10 9 8 10 9 8 8 8 8 8 7 7 7 7 8 8 9 8 9 8 8 7 7 7 7 7 7 8 7 7 7 6 6 6 6 5 5
8 4 10 6 5 5 0 3 3 7 7 10 13 17 20 18 18 18 16 15 12 12 10 2 5 12 7 9 8 5 1 1 1 2 5 4 3 5 6 7 8 10 11 10 9 10 11 9 9 9 10 11 11 12 11 10 8 7 7 8 9 9 8 7 9 9 9 9 8 8 8 8 7 7 8 7 7 6 7 7 6 6 6 6 5 6
3 0 2 6 8 4 1 3 4 4 2 4 7 11 15 20 21 17 14 8 7 12 10 8 10 14 6 3 5 5 5 2 4 6 6 4 5 5 8 9 10 11 12 12 11 9 9 11 12 13 15 14 13 12 11 11 10 10 11 10 10 10 8 8 8 9 9 8 8 8 8 8 8 8 7 7 7 7 6 6 7 6 6 6 6 5
5 7 5 5 8 3 1 3 5 4 2 6 15 19 17 12 11 9 12 13 18 17 13 13 17 10 6 7 9 6 5 7 7 8 7 5 6 8 9 11 12 12 12 11 11 13 14 15 17 17 15 10 12 13 13 12 11 13 13 12 10 8 9 9 8 8 8 7 8 8 8 8 9 8 8 7 7 7 7 7 7 6 6 6 4 4
7 8 5 6 6 3 1 4 4 5 4 17 6 7 12 16 14 11 13 15 14 8 11 14 11 4 6 8 10 6 8 8 12 10 3 6 6 7 9 10 11 10 8 7 9 12 14 12 10 10 11 12 11 9 7 9 10 7 5 7 7 9 8 9 8 8 8 8 8 8 8 8 9 9 8 7 7 7 7 7 7 5 4 5 4 5
10 8 6 3 5 4 2 5 5 7 17 1 0 2 12 14 16 22 21 17 17 16 14 9 6 5 10 9 12 11 8 6 3 3 2 5 8 9 11 13 14 12 12 12 12 12 13 13 11 7 8 11 12 10 10 9 7 7 8 8 9 8 9 8 9 8 9 9 8 8 8 8 8 9 8 8 7 7 7 7 6 6 4 5 5 5
11 11 6 3 4 5 3 5 6 17 3 2 3 1 0 2 2 3 9 10 8 8 12 15 18 11 8 8 5 1 2 4 4 5 8 8 9 9 9 11 12 10 11 12 13 14 13 13 15 17 16 7 8 10 10 10 8 9 9 7 9 9 9 10 10 9 9 10 10 10 9 9 9 9 9 8 7 8 8 7 7 7 5 5 4 3
14 8 8 3 1 8 5 10 12 5 7 5 3 3 7 8 7 10 9 14 15 14 13 15 16 10 7 8 5 3 0 1 2 9 6 7 9 10 12 12 11 12 12 10 8 10 9 8 8 7 6 8 10 11 12 10 10 10 9 10 9 10 9 10 11 11 11 11 11 10 10 9 10 10 9 8 9 9 8 8 7 5 4 6 5 5
12 13 5 10 2 5 7 1 3 6 13 15 3 1 5 4 8 10 7 10 6 13 15 15 14 12 11 8 6 4 1 2 9 12 10 8 10 12 11 10 8 6 4 5 5 5 5 6 6 6 10 10 10 10 9 10 11 10 10 10 9 10 10 10 12 11 11 11 11 10 9 9 9 10 9 9 10 9 7 5 4 4 4 7 7 6
5 5 11 14 5 5 4 8 9 11 13 3 9 8 7 8 11 7 2 13 6 10 9 13 13 12 12 12 8 6 4 6 12 11 7 6 9 8 7 9 9 7 5 4 6 6 6 8 10 9 8 10 11 11 11 12 12 12 12 11 11 11 11 12 11 11 12 11 9 9 8 8 8 8 10 9 8 8 9 7 7 5 5 5 5 5
10 6 7 6 6 8 9 8 12 5 3 4 7 6 8 9 10 4 3 15 1 9 10 12 14 14 14 12 10 11 12 10 11 9 4 6 4 2 6 8 6 6 7 5 4 5 6 6 8 7 10 13 14 11 13 12 12 12 12 11 10 12 13 13 13 10 7 7 8 8 8 7 8 7 9 9 8 7 7 6 7 6 6 5 5 6
5 0 6 15 10 6 9 5 3 6 3 3 5 2 5 8 9 7 18 8 6 7 5 10 14 14 10 7 10 10 12 11 3 2 1 2 2 1 0 1 2 2 4 4 4 3 5 7 10 13 14 10 9 11 12 12 12 13 12 12 13 15 15 11 9 9 9 8 8 7 7 6 7 9 6 6 9 8 7 5 7 7 6 7 6 6
1 4 3 3 8 10 9 8 9 5 6 8 2 10 11 8 3 16 7 1 5 5 2 7 6 4 6 11 10 10 10 5 3 2 2 0 1 2 2 2 2 2 3 1 2 3 4 4 4 3 3 5 9 10 11 12 13 12 12 12 16 15 9 9 9 9 9 9 8 7 7 7 6 6 7 7 8 9 7 4 5 6 6 6 7 8
10 9 8 9 2 5 3 3 1 12 5 10 12 3 3 8 9 5 2 0 1 4 5 4 7 6 8 8 11 11 6 1 4 5 3 1 0 1 1 1 2 1 2 2 3 2 5 5 5 4 5 5 8 9 10 12 12 11 10 14 11 6 8 8 9 9 9 8 8 7 8 7 8 8 7 7 7 9 9 6 6 6 6 8 7 8
6 8 3 4 8 11 10 11 11 6 9 11 18 12 9 10 1 3 5 2 1 3 4 4 3 6 6 8 9 7 5 3 3 4 2 3 2 0 1 1 2 2 1 2 1 3 4 5 4 5 4 5 7 8 9 12 12 11 12 12 6 8 8 9 9 9 9 8 8 8 7 7 7 7 6 7 8 7 9 8 6 6 6 6 7 8
9 13 7 13 4 7 9 11 1 2 7 4 3 2 6 4 4 3 2 2 5 3 3 2 4 4 6 5 4 5 4 7 5 3 4 1 0 0 1 1 1 1 1 2 1 1 2 5 6 5 4 4 7 8 9 9 13 12 12 7 9 10 11 10 10 10 10 9 8 8 7 7 7 7 7 7 8 9 8 8 8 8 5 6 5 6
4 1 3 5 5 2 4 1 2 1 2 4 1 0 2 1 2 2 1 2 1 2 4 2 0 3 3 4 5 3 6 3 4 2 1 0 1 1 2 2 2 2 2 2 3 3 3 4 4 5 5 3 4 5 5 6 7 12 8 8 9 10 11 12 12 11 11 9 8 8 8 9 7 6 6 7 5 6 7 9 8 8 8 6 6 6
2 1 3 3 1 7 11 1 4 5 3 3 2 1 0 1 1 1 2 1 3 3 2 1 2 3 4 4 4 4 5 3 4 1 1 1 1 1 1 2 1 1 3 4 2 3 4 5 5 4 4 5 2 3 3 4 2 4 7 9 8 10 11 11 11 10 9 9 8 7 8 10 9 8 7 7 6 5 5 6 6 7 7 7 7 6
3 3 4 2 6 11 7 1 2 3 3 2 1 1 1 1 3 2 2 3 4 3 3 1 2 4 2 2 1 4 2 2 5 4 3 2 2 2 2 2 2 2 1 2 2 2 4 4 4 4 4 5 2 2 4 4 4 6 8 8 9 9 10 10 10 11 10 10 9 9 9 8 8 10 10 8 8 9 8 6 5 7 8 9 9 9
4 9 6 7 7 1 3 1 1 1 1 2 3 5 3 2 4 4 3 5 4 6 5 4 4 2 2 2 2 4 4 1 2 3 3 3 2 2 3 2 2 2 3 3 1 2 3 3 3 4 4 3 2 3 4 4 4 6 8 8 9 10 11 11 9 9 9 8 8 8 7 7 8 9 10 10 6 4 5 8 7 6 3 1 3 4
7 9 1 5 1 5 11 7 7 7 4 7 10 7 4 3 4 5 4 4 4 5 4 6 4 3 3 3 1 1 4 3 3 3 3 3 3 3 2 2 3 3 2 1 2 2 3 4 4 4 4 3 2 3 4 4 4 4 5 7 8 9 11 10 9 8 9 8 8 8 8 7 7 7 8 9 9 8 4 1 4 2 4 4 4 6
9 9 8 8 9 12 8 11 13 4 2 4 8 7 5 5 6 8 6 5 3 2 3 6 6 4 6 5 5 4 3 2 2 1 1 0 0 1 3 4 4 3 3 3 3 2 3 3 4 4 4 4 3 4 4 5 5 5 6 7 8 9 10 11 10 9 8 9 9 9 8 8 8 7 8 9 9 8 7 6 4 7 6 5 6 7
Wind_Direction
157 157 190 201 205 190 189 201 212 232 246 272 278 196 214 196 257 251 259 263 301 140 223 213 226 240 259 245 240 205 155 240 243 229 224 224 217 219 225 223 224 225 229 233 224 219 217 217 215 212 199 197 194 199 197 199 202 199 196 186 200 195 184 181 184 186 184 188 196 204 193 201 188 195 197 206 210 206 209 214 239 226 205 197 201 214
158 194 215 213 173 180 182 180 215 229 228 240 254 225 238 202 213 220 196 352 325 172 243 218 250 263 256 263 254 211 151 229 223 222 227 226 221 220 218 225 225 227 252 258 235 225 218 214 212 205 202 189 191 205 194 201 203 200 195 194 196 183 188 193 191 186 190 193 191 182 186 165 164 178 192 211 206 205 207 210 189 190 212 242 236 229
190 209 215 177 128 129 182 213 229 218 229 228 229 241 233 241 258 304 298 327 319 155 259 32 213 252 255 255 192 193 207 230 219 213 216 209 218 222 220 227 231 234 236 225 235 230 218 214 209 199 201 201 203 197 197 204 200 200 199 201 192 189 188 195 192 185 196 189 184 175 165 161 163 218 195 200 194 186 196 211 194 188 209 207 221 220
198 236 103 140 132 167 203 225 233 235 233 227 227 184 229 216 154 248 289 351 356 123 271 191 204 270 284 295 253 230 209 235 229 219 242 225 219 217 215 211 213 219 224 225 223 220 215 212 209 202 204 204 200 198 198 197 200 202 206 202 195 194 193 191 193 193 190 174 166 150 145 157 146 181 180 161 33 166 177 228 233 210 209 207 212 216
174 69 104 123 170 196 207 227 236 229 243 234 213 210 219 201 231 146 207 117 276 21 90 83 6 302 267 269 288 262 213 239 262 246 257 252 241 245 284 283 226 220 214 223 229 232 222 215 211 204 205 197 198 201 199 196 197 198 204 203 197 194 195 194 188 185 161 134 124 96 63 78 76 51 72 133 237 190 198 255 185 224 202 214 222 223
218 7 125 154 177 185 205 238 235 217 245 255 229 206 217 199 200 239 125 115 75 272 274 162 300 274 274 251 236 250 64 223 236 227 246 242 235 236 242 237 229 233 222 217 223 218 212 210 213 215 210 201 205 206 206 198 200 197 201 199 198 196 193 193 189 176 164 171 165 156 156 164 167 190 166 193 207 231 219 215 236 206 189 211 227 227
179 165 157 173 180 185 203 232 243 185 231 233 257 192 217 204 186 142 155 121 186 200 273 28 195 265 324 266 234 250 278 254 284 234 246 247 242 229 233 231 224 220 223 233 245 245 220 230 218 217 208 206 205 213 201 196 199 198 195 191 191 194 196 190 177 171 169 174 180 182 185 185 188 196 207 192 212 200 218 166 139 159 193 187 167 103
161 185 142 170 183 191 207 226 232 193 210 238 249 182 199 178 155 195 162 176 206 271 296 53 133 204 274 272 271 308 250 264 273 261 256 250 240 235 231 227 225 222 217 209 221 224 220 211 203 206 207 202 209 205 183 196 196 196 195 187 191 192 190 185 172 173 179 180 180 180 186 185 185 191 196 191 192 147 146 129 120 107 73 70 65 88
156 178 169 177 184 195 215 213 223 184 209 225 234 167 189 187 188 174 174 174 193 157 257 242 250 220 252 264 315 324 292 273 255 247 246 243 237 235 232 229 227 224 217 204 212 219 214 208 208 211 210 216 208 171 188 196 198 197 193 189 187 191 186 185 177 177 184 182 178 179 175 182 199 180 173 144 131 132 139 119 120 108 94 72 60 54
220 183 169 175 174 207 211 223 217 182 212 254 135 75 69 56 60 144 167 143 72 162 240 206 191 205 278 270 303 348 235 263 258 246 238 234 233 228 230 236 230 228 229 222 222 223 223 227 228 222 213 183 213 221 215 208 187 194 188 189 186 196 189 184 180 180 182 179 170 175 179 179 170 136 120 143 141 141 145 125 123 104 91 87 73 52
169 28 155 180 209 218 177 236 203 200 213 105 124 76 25 35 64 34 67 97 65 243 236 196 207 184 265 235 205 182 212 207 235 265 275 263 250 230 223 224 220 216 215 213 215 224 227 232 215 193 190 203 194 191 181 193 183 182 187 189 193 198 185 180 182 178 180 175 175 177 177 175 164 159 147 137 132 129 129 130 121 109 99 81 81 76
93 119 155 236 97 114 135 244 110 235 155 152 157 129 71 357 25 50 346 58 191 247 255 276 191 154 213 294 265 230 257 224 211 228 247 268 265 251 241 236 227 218 214 206 197 201 173 135 137 154 185 184 177 146 169 183 170 171 185 181 193 195 189 185 181 180 176 174 178 177 174 173 169 161 161 157 157 162 153 146 137 137 112 91 87 82
237 196 249 119 213 167 169 170 316 67 209 227 123 142 173 230 87 243 110 209 215 214 295 17 171 21 245 228 249 276 266 251 214 222 240 254 268 252 236 226 221 219 204 195 195 182 181 176 172 180 188 168 180 191 187 182 181 172 169 180 183 197 190 187 175 179 173 174 179 175 175 173 166 167 165 162 160 165 156 154 148 145 122 142 108 64
281 278 217 220 114 205 167 192 157 192 217 188 196 174 179 171 187 195 237 325 334 283 278 11 334 278 273 285 249 255 255 229 224 232 241 249 256 263 252 228 215 213 205 200 189 191 189 190 191 188 183 194 195 177 192 240 230 187 175 178 182 187 186 176 174 173 170 179 178 176 173 165 162 165 162 160 155 157 150 150 144 138 140 134 132 131
151 208 234 174 205 160 193 212 200 166 165 210 17 182 180 147 167 206 190 193 213 199 275 282 111 233 138 238 243 225 271 317 255 251 250 252 254 263 262 214 206 212 220 208 197 197 200 205 197 191 189 198 199 177 183 202 212 181 176 167 166 148 179 170 170 163 167 166 166 166 164 157 156 151 146 142 144 145 140 141 121 117 127 130 147 132
204 206 317 155 165 140 187 206 118 112 158 209 198 63 171 219 150 166 204 148 174 142 15 237 206 192 178 263 283 268 289 292 257 275 258 250 272 249 208 203 204 203 205 204 208 218 228 219 210 197 194 201 188 177 179 197 197 189 182 172 170 169 165 164 157 161 156 154 147 145 144 145 138 130 123 119 118 121 134 131 125 132 131 129 126 117
151 227 340 32 51 153 179 135 211 172 202 197 131 210 220 73 104 95 57 79 103 49 248 150 315 291 302 317 294 337 330 280 301 275 268 254 273 249 232 222 208 202 203 204 210 210 213 217 227 208 194 181 169 172 185 188 195 188 167 164 154 148 149 151 154 147 145 140 136 134 132 133 136 139 142 141 136 129 114 113 117 127 129 118 116 121
161 179 35 143 174 291 172 157 155 183 157 86 197 233 177 158 119 140 209 353 62 188 252 93 208 281 112 244 337 343 311 266 272 255 257 279 257 234 230 214 209 207 209 213 221 217 206 197 192 199 212 187 173 173 174 180 194 185 172 164 151 150 146 141 138 139 141 135 130 131 129 129 135 134 131 133 131 126 114 107 110 116 117 124 124 111
128 76 260 303 150 187 91 112 88 272 194 196 204 206 152 217 230 280 110 226 185 232 262 307 281 275 185 226 352 247 230 255 245 235 273 257 231 231 228 228 231 239 226 215 213 208 206 195 193 187 196 194 194 177 169 168 171 171 155 158 155 151 147 143 134 125 117 126 130 133 134 133 126 124 122 120 119 118 120 125 127 123 126 113 110 115
178 126 299 316 154 194 63 123 208 192 225 217 127 225 253 126 214 151 204 172 135 252 61 290 77 234 210 223 202 250 226 234 244 196 230 234 230 222 218 213 209 209 209 207 204 204 201 199 193 187 180 177 174 167 162 164 158 164 149 138 127 117 124 127 129 132 127 121 124 121 113 110 121 126 126 126 123 121 125 132 128 127 120 125 117 113
194 109 166 260 281 113 187 193 209 172 173 180 181 200 223 324 234 104 37 134 183 184 191 192 290 273 254 217 197 229 239 231 205 218 223 228 228 221 217 208 207 208 204 203 197 195 198 201 201 188 177 153 123 130 154 160 166 161 151 144 148 143 144 137 135 130 129 128 127 129 129 128 125 117 114 112 118 119 123 123 119 118 125 113 116 124
153 176 172 140 107 208 218 345 170 174 183 182 179 206 174 119 118 190 238 51 88 120 224 133 250 271 266 205 203 218 237 169 204 218 240 245 239 223 217 216 204 206 210 197 197 191 190 191 174 129 93 103 121 140 157 160 156 162 164 162 152 143 148 143 139 135 132 127 130 127 124 118 114 118 118 120 122 120 122 120 120 129 119 116 124 121
145 116 105 166 213 191 197 56 172 137 114 191 176 245 193 168 120 121 218 242 47 272 103 165 65 271 247 226 233 254 324 263 266 225 248 245 231 226 220 210 208 207 198 198 193 193 190 179 173 167 164 165 168 169 164 167 172 171 165 160 166 151 155 151 141 135 131 127 126 124 122 122 125 125 126 123 126 123 123 123 122 126 125 125 123 107
103 114 98 321 323 308 308 209 109 129 138 310 269 172 136 210 194 185 179 180 166 158 360 287 244 252 286 274 255 263 270 281 271 243 247 266 248 234 218 202 194 193 201 198 191 187 184 173 159 153 166 169 169 172 176 173 164 166 169 167 159 157 148 137 134 131 125 121 120 127 126 128 131 128 131 128 131 127 127 128 127 131 124 127 127 122
147 229 135 116 46 356 342 346 324 338 138 206 201 222 188 76 66 143 96 81 168 219 190 159 242 282 269 318 303 286 289 286 269 253 211 247 251 226 214 205 190 188 179 184 189 187 175 169 177 186 181 179 178 179 176 172 170 167 165 161 162 150 147 137 135 131 129 131 132 134 132 135 138 135 132 129 130 131 131 135 136 137 136 131 123 122
178 176 148 163 175 182 191 199 208 208 207 174 74 302 222 161 153 131 213 144 205 274 141 185 254 250 272 315 315 306 311 297 270 255 254 227 242 216 207 196 190 187 194 187 183 176 192 193 190 188 192 188 188 181 176 176 169 167 158 165 154 146 144 143 136 135 135 139 136 139 138 140 137 137 136 134 134 137 141 142 139 137 132 132 122 111
167 154 181 191 188 199 201 59 83 97 87 207 228 154 221 243 224 144 98 129 202 208 188 228 178 237 274 267 277 286 307 259 282 310 272 260 256 251 211 195 193 196 192 190 190 190 174 189 201 200 198 198 186 185 181 173 169 165 161 159 160 155 148 150 144 143 140 144 140 141 147 145 144 141 140 140 140 139 138 137 137 133 130 126 118 117
121 183 204 200 204 208 133 157 159 135 170 201 182 220 211 181 183 177 204 232 169 116 266 248 195 194 237 255 266 273 269 277 271 277 299 308 272 214 197 178 172 188 199 195 197 193 197 198 197 198 199 194 193 186 183 181 174 171 169 167 163 154 148 149 145 146 144 145 145 148 150 146 141 141 140 136 136 137 132 130 127 122 121 116 105 102
169 209 202 178 210 178 181 166 163 161 187 193 199 202 204 198 184 194 222 226 166 206 236 229 186 210 231 228 240 248 232 223 276 280 240 222 168 136 137 162 192 204 203 203 209 203 199 200 200 200 197 197 184 188 186 178 178 171 167 161 160 157 162 155 148 149 149 148 152 154 148 142 139 134 136 138 136 134 134 129 124 118 111 103 99 91
154 220 166 177 177 169 205 180 185 178 193 190 194 205 210 200 207 210 223 224 212 226 235 237 205 227 221 238 228 243 231 239 274 289 43 138 180 172 172 196 205 209 209 212 210 206 205 203 198 200 197 194 194 189 185 183 183 179 171 167 165 166 167 154 157 154 157 159 157 150 148 144 141 144 142 141 141 140 134 129 126 119 108 99 96 93
170 234 140 139 150 190 359 348 218 213 195 201 206 202 203 208 215 219 224 234 235 250 254 304 258 263 243 225 243 259 236 274 283 274 228 221 165 182 196 212 218 218 220 220 211 208 206 203 203 198 199 200 195 194 188 187 179 169 170 174 173 172 166 163 161 162 162 160 155 150 145 145 148 146 148 146 137 136 133 130 126 115 107 99 90 90
99 177 56 126 165 220 343 152 189 196 225 227 236 226 218 210 213 216 221 219 217 230 233 242 251 252 250 229 252 250 252 204 233 251 238 215 194 188 204 220 222 226 223 218 212 203 202 205 202 203 204 200 195 190 187 182 179 176 184 176 177 172 164 165 164 162 163 156 151 150 151 151 149 148 148 145 143 137 132 126 120 113 109 105 96 92
134 127 134 132 168 245 253 122 140 122 184 278 242 222 210 220 217 218 222 211 211 209 218 225 238 238 231 198 222 236 199 225 237 240 239 213 204 198 209 218 224 226 223 216 206 205 206 206 206 206 204 194 194 193 195 181 172 189 184 178 174 149 163 167 164 160 155 153 153 155 155 156 156 152 149 147 139 136 132 125 115 114 112 107 112 101
122 121 146 163 167 182 126 134 125 113 204 233 246 174 175 198 197 214 230 222 230 198 218 218 239 197 191 211 217 211 191 213 214 233 195 186 183 213 232 236 238 235 232 223 216 214 216 215 216 212 205 202 200 196 181 185 188 178 155 150 145 160 163 160 162 159 157 156 161 161 161 161 157 152 148 142 139 136 131 124 120 113 109 113 104 101
148 140 151 152 130 159 110 101 136 208 234 266 345 221 189 193 194 205 220 217 222 222 234 256 268 191 212 208 215 221 215 243 286 295 242 199 183 197 211 223 229 228 222 218 216 215 214 211 210 202 196 201 191 177 167 179 169 150 149 156 158 164 161 165 160 163 164 164 163 164 166 164 158 149 146 144 140 134 129 125 121 117 119 117 121 121
165 157 133 61 116 67 113 161 195 229 239 315 264 145 9 176 208 204 268 261 250 234 223 233 238 223 220 236 256 272 196 252 301 259 229 229 206 205 212 227 231 223 224 221 214 217 208 202 201 200 205 170 155 173 177 176 159 158 163 155 162 164 170 166 168 168 166 170 172 172 171 164 158 152 148 146 141 137 135 132 135 135 134 115 106 102
155 116 136 131 138 163 185 189 227 352 333 272 228 195 165 158 169 167 216 249 225 217 207 222 235 235 230 242 229 230 342 5 313 284 259 213 223 226 218 228 225 224 224 232 214 226 214 211 208 198 154 166 174 169 180 167 161 158 153 165 172 170 172 170 175 177 177 176 173 172 171 169 159 155 152 150 145 144 142 139 134 132 132 118 120 116
157 159 174 157 241 134 130 229 317 264 253 236 197 234 150 167 156 171 180 264 227 214 208 211 221 223 225 230 232 212 92 316 290 261 244 237 229 228 234 243 254 258 246 229 218 213 192 188 171 165 169 170 179 178 161 160 161 157 162 170 169 171 175 180 185 180 180 180 175 170 168 167 161 155 155 154 154 149 141 127 114 132 146 134 134 117
37 111 159 180 158 94 158 181 208 217 242 128 171 174 176 143 139 120 73 261 222 195 199 197 214 218 213 208 207 130 138 220 244 251 256 219 241 231 238 248 246 248 243 210 191 194 189 183 175 169 160 164 176 177 164 161 160 162 172 172 174 177 181 190 186 182 183 179 169 164 159 158 158 158 155 154 151 147 144 146 143 135 116 113 111 118
123 142 128 143 161 180 172 191 220 222 227 218 183 188 168 149 117 99 270 257 157 193 195 184 201 208 216 204 167 172 187 221 239 249 234 220 227 232 208 242 250 252 250 243 247 205 179 153 127 150 169 183 189 164 162 159 166 173 174 177 172 182 192 192 189 180 165 154 155 155 153 154 154 157 156 148 138 134 134 132 129 133 124 117 118 118
134 50 181 191 182 170 174 238 321 279 262 232 212 209 140 146 129 137 224 233 207 202 202 179 205 208 200 167 158 196 217 213 196 220 294 293 303 275 7 9 275 262 257 248 232 133 143 168 173 181 190 185 157 156 160 162 164 179 180 175 179 197 196 184 165 157 155 148 146 147 146 145 154 151 142 139 139 131 126 133 135 133 129 127 121 112
118 111 326 76 165 175 192 199 232 262 227 169 319 153 159 106 185 213 230 152 159 197 217 190 201 180 143 171 186 213 228 216 200 284 282 317 210 279 329 338 358 35 29 49 109 134 139 151 157 139 130 140 155 157 162 166 177 180 178 180 198 198 167 153 151 144 142 146 145 142 141 143 134 133 134 131 131 129 124 120 124 130 132 128 125 118
176 157 186 185 160 51 67 215 18 256 226 134 123 109 251 177 228 198 163 359 175 186 157 205 189 202 171 191 204 210 216 180 211 226 241 291 264 288 355 14 33 42 40 67 94 93 136 144 155 159 155 146 155 160 166 169 177 182 181 197 198 145 140 137 134 136 136 137 140 144 143 141 141 139 138 136 137 134 133 138 131 134 134 131 125 119
178 167 191 210 187 174 178 190 209 214 108 166 143 176 206 208 185 185 133 159 238 178 177 197 233 200 195 186 197 221 220 208 274 260 290 274 253 350 63 38 50 48 47 32 118 140 134 133 132 134 137 148 157 163 169 174 180 183 188 196 135 131 126 131 133 134 136 141 143 141 143 142 136 133 135 140 139 138 140 142 140 137 144 144 135 131
211 201 178 189 188 158 196 216 229 233 152 162 49 289 214 168 62 171 129 135 166 237 183 159 226 192 201 184 176 180 198 224 215 204 195 268 163 83 71 35 47 55 46 71 71 95 118 149 151 138 143 160 165 171 176 183 181 181 188 166 137 143 144 140 140 142 147 150 152 149 144 136 137 140 142 149 150 149 150 144 150 137 147 144 139 134
339 186 130 98 241 303 325 139 124 95 194 238 332 252 266 76 74 102 128 118 250 207 167 177 201 169 179 177 143 217 222 203 200 238 222 14 118 75 98 84 73 71 75 80 77 79 105 102 115 136 147 161 176 171 179 186 183 183 177 137 149 145 145 145 146 151 153 153 153 152 147 139 138 142 150 154 163 162 158 158 157 151 146 148 141 142
263 136 116 161 168 143 242 159 146 168 209 263 324 328 40 88 168 157 139 150 138 132 119 27 151 147 156 147 173 194 218 179 187 204 138 113 136 126 100 111 101 132 133 128 135 113 108 121 127 142 147 161 178 156 157 164 142 136 126 150 144 146 145 150 151 149 150 153 151 151 157 153 157 158 154 143 146 143 151 156 154 148 151 154 149 145
258 190 151 202 155 180 234 241 271 300 278 259 215 218 164 71 60 47 92 111 111 90 97 105 93 94 90 95 198 186 190 173 165 173 167 182 178 174 164 153 141 90 52 96 111 104 111 128 143 150 153 165 166 137 138 133 125 133 139 141 146 143 144 149 157 157 161 161 162 166 168 165 158 156 148 159 160 152 146 163 169 165 170 169 167 155
163 130 204 172 172 287 32 338 290 23 357 271 252 248 251 178 115 88 78 97 110 96 85 57 58 102 116 137 127 120 113 170 176 168 170 177 169 176 180 164 147 133 124 123 98 115 134 141 136 148 152 148 126 123 128 120 119 140 144 146 147 151 152 157 156 154 155 161 161 170 171 167 167 169 159 132 151 155 136 148 165 169 143 80 108 176
101 186 140 87 137 206 203 185 172 117 216 238 237 210 193 197 135 120 100 83 97 112 109 89 45 35 73 68 102 135 122 171 204 170 174 183 182 164 149 134 134 130 117 110 103 100 98 118 137 146 147 137 130 123 122 112 115 131 140 146 154 157 158 155 153 155 168 172 176 174 170 169 167 165 158 149 140 130 119 187 159 144 142 157 194 158
169 180 148 179 181 219 200 175 191 153 126 228 182 177 179 163 144 127 133 136 121 115 126 116 100 43 36 17 20 64 85 128 187 162 120 155 189 174 157 150 145 144 150 144 127 125 119 125 130 138 143 149 137 139 141 145 150 149 155 160 164 168 164 158 162 172 175 179 188 182 174 165 164 166 152 152 143 149 145 133 150 146 143 158 178 178